STARLINK-33689, 63322

Orbit data source: Space-Track

STARLINK-33689, 63322 is a payload satellite owned by SpaceX/Seattle (US) in LEO that was launched on Tue, 18 Mar 2025 UTC via an FALCON 9 launch vehicle from the Air Force Eastern Test Range (AFETR). Payload-class satellites include a variety of spacecraft equipped with specific instruments for various scientific and technological missions. These include communications satellites like Starlink; space stations such as the ISS; scientific satellites like the Hubble; Earth observation satellites from companies like Planet Labs, Umbra, and HawkEye 360; GPS; miniature CubeSats for education and research; and military/defense satellites.

Loading next visibility...
Identifier
63322, 2025-057R
Orbit
LEO
Country
Flag of USUS
Related business
Manufacturer
SpaceX/Seattle
Mission
Operational Commercial Communications
Bus & Motor
STARLINK V2MO, Unknown motor
Mass
575 kg wet, ~530 kg dry
Launch date (UTC)
2025-03-18 (1 year ago)
Launch vehicle
FALCON 9
Launch site
Air Force Eastern Test Range (AFETR)
Object type
Payload
Rocket body
Debris
Shape & HBR
Box + 2 Pan, 17.7 m
Radar Cross Section
36.964 m², Large (>1 m²)

Expand to show TLE details & history
Last TLE update: 20 hours ago

TLE from 20 hours ago
0 STARLINK-33689
1 63322U 25057R   26126.24579433  .00016658  00000-0  61307-3 0  9995
2 63322  43.0015  65.4767 0001546 264.8417  95.2259 15.27603324 64582
Epoch: 2026-05-06T05:53Z
TLE epoch observation values (Epoch: 2026-05-06T05:53:56.630Z)
Latitude
0.00005°
Longitude
112.88175°
Altitude
482.852 km
Speed
7.626 km/s
True Right ascension
04h 21m 54s
True Declination
0° 00' 00"
Sunlit
Object was in daylight at epoch
Visualization orbit readout
Latitude
Unknown
Longitude
Unknown
Altitude
Unknown
Speed
Unknown
Apparent Right ascension
Unknown
Apparent Declination
Unknown
Sunlit
N/A
Visualization observer readout
Local Sidereal Time
09:40:20
Azimuth
Unknown
Elevation
Unknown
Doppler factor
Unknown
Orbital elements
Apogee altitude
485.985 km
Perigee altitude
483.863 km
Semi-major axis
6,863.061 km
Eccentricity
0.00015
Inclination
43.0015°
RAAN
65.4767°
Arg. of periapsis
264.8417°
True anomaly
95.24354°
Mean anomaly
95.2259°
Eccentric anomaly
95.23472°
Mean motion
3.81739 °/min
Orbital period
94.31 mins
BSTAR
0.00061307
Loading maneuver chart data...
Computing Atmospheric mass density...
Loading historical data...
Loading historical data...
Loading historical data...
Loading historical data...
Loading historical data...
Loading historical data...
Loading historical data...

Documentation

Showing up to 5 results
|